Orbital Elements at Epoch 2459200.5 (2020-Dec-17.0) TDB
Reference: JPL 15 (heliocentric ecliptic J2000)
Element | Value | Uncertainty (1-sigma) | Units |
e | .3154642603752674 | 5.9302e-08 | |
a | 3.966345721225257 | 6.0732e-08 | au |
q | 2.715105401886325 | 2.3927e-07 | au |
i | 5.151176838716599 | 6.5977e-06 | deg |
node | 242.8329739701674 | 8.1406e-05 | deg |
peri | 118.1176562860691 | 8.215e-05 | deg |
M | 275.3880552108656 | 1.4508e-05 | deg |
tp | 2459878.630773044336 (2022-Oct-26.13077304) | 0.00012912 | TDB |
period | 2885.255490869076 7.90 | 6.6268e-05 1.814e-07 | d yr |
n | .1247723125869742 | 2.8657e-09 | deg/d |
Q | 5.217586040564189 | 7.9891e-08 | au |
|
| | Orbit Determination Parameters
Additional Information
|